Wind_Speed
18 17 16 16 17 20 24 33 33 37 40 44 44 43 44 48 47 47 45 44 46 44 45 45 44 43 42 44 41 39 39 34 31 21 14 18 30 31 36 43 42 39 39
23 18 18 17 22 22 37 36 38 43 45 48 48 55 52 45 44 44 46 45 47 47 49 48 47 46 45 45 45 39 38 37 31 28 24 29 29 28 27 27 28 30 34
26 21 24 31 37 40 40 41 48 50 53 56 54 51 45 44 43 44 45 46 50 50 49 49 48 48 46 45 42 42 38 37 32 31 29 28 27 25 23 22 23 25 24
16 27 29 37 39 43 48 52 54 56 60 62 55 47 47 48 47 48 48 49 50 50 50 49 48 49 48 46 43 42 40 38 36 32 32 30 26 26 25 24 21 23 24
27 26 32 41 46 49 54 60 61 62 63 59 49 51 52 52 51 52 52 53 54 52 52 52 52 50 49 45 43 42 42 41 39 43 40 30 27 24 26 25 23 23 27
37 34 33 41 49 55 58 64 63 63 56 50 52 52 51 51 52 53 54 53 54 54 54 51 49 45 46 44 41 43 44 45 44 51 40 25 25 25 26 25 24 21 20
33 36 37 43 52 56 62 64 55 50 52 52 50 52 53 55 56 56 55 55 57 54 54 47 42 45 46 43 42 44 46 45 46 44 37 26 26 27 28 26 24 23 23
39 38 45 52 58 60 64 53 53 50 50 52 53 53 53 54 55 56 55 54 51 48 43 38 43 42 41 40 41 44 46 45 47 48 40 30 30 29 33 30 28 26 26
48 50 54 61 65 66 62 51 53 51 51 50 51 52 52 53 53 52 50 47 42 42 39 40 40 40 38 37 41 43 44 41 41 41 39 30 30 31 33 31 26 26 28
53 56 62 68 68 59 56 54 52 50 50 49 51 52 52 50 49 49 45 42 41 40 37 38 39 37 37 37 41 41 42 40 35 39 33 26 28 29 30 30 28 28 28
60 63 59 59 60 54 53 51 50 51 50 49 50 49 48 46 44 45 43 41 41 41 38 38 39 38 36 37 38 37 41 36 35 25 25 27 29 28 29 31 30 31 30
59 61 57 57 53 51 51 51 52 51 50 49 47 46 44 44 43 42 42 40 40 41 40 39 39 38 36 36 38 38 36 33 35 29 31 31 29 28 29 30 30 32 32
61 59 55 50 51 52 52 52 51 50 48 45 41 40 40 41 42 40 41 38 37 38 37 36 38 37 36 34 33 34 35 35 35 32 31 29 29 28 29 30 32 34 34
50 46 46 48 50 50 49 47 45 42 41 41 40 38 39 40 41 39 39 36 34 35 35 33 33 33 32 29 29 34 36 42 34 33 30 28 29 29 29 27 30 33 34
47 46 47 48 46 43 42 40 38 38 39 40 40 40 40 42 41 41 39 38 35 35 34 34 31 31 27 29 30 34 43 40 45 42 37 34 33 33 33 30 31 35 37
48 45 42 39 38 37 36 36 37 38 39 42 44 42 38 37 37 37 39 36 35 34 33 34 32 32 30 28 31 37 32 35 32 38 37 34 35 39 35 33 33 38 40
39 38 37 36 35 34 34 35 35 37 38 40 41 39 35 36 34 31 34 34 32 33 33 34 33 32 27 25 22 26 25 30 36 30 31 36 36 44 42 32 37 40 38
40 38 36 34 33 32 33 34 35 37 36 32 32 36 40 36 33 28 26 25 27 27 27 28 30 27 27 25 28 31 23 19 27 26 27 26 29 38 40 34 34 37 38
34 35 33 32 31 33 33 34 34 30 27 27 29 27 30 36 38 33 31 28 23 20 21 21 20 21 21 21 25 26 28 30 33 35 36 37 35 33 30 34 41 40 40
34 29 31 30 32 33 31 32 28 25 23 24 20 20 23 26 27 32 33 29 22 18 16 16 15 14 16 19 21 23 23 24 28 26 27 29 29 30 32 35 39 40 41
29 29 29 29 31 31 27 25 23 21 21 20 17 19 21 20 22 22 25 29 24 16 15 13 11 6 11 10 9 12 15 15 17 21 25 31 34 36 37 36 38 33 33
26 27 30 28 28 26 23 22 19 20 17 16 17 18 16 16 18 18 17 20 22 17 9 7 7 6 8 11 9 8 9 9 10 11 14 16 17 22 24 25 26 25 27
28 29 28 23 24 21 20 19 18 17 13 15 14 13 14 15 15 14 15 15 15 19 18 16 11 7 5 1 3 6 8 7 6 3 4 4 3 4 6 10 13 14 13
27 24 22 22 25 17 15 17 13 13 12 12 10 11 13 12 11 11 12 13 12 11 11 11 11 11 10 10 9 8 9 9 9 9 9 9 7 7 10 13 15 17 17
24 23 22 21 20 16 15 13 11 12 10 11 10 10 11 11 10 10 9 9 10 8 8 9 9 8 8 7 7 8 7 8 9 9 9 10 11 13 14 15 17 19 20
25 25 22 20 18 16 11 12 12 10 9 11 11 9 9 10 11 11 9 8 7 4 5 6 7 7 8 7 7 6 6 6 7 9 11 13 15 16 18 19 21 23 24
Wind_Direction
297 296 298 303 313 314 322 318 310 311 312 309 310 313 301 298 294 292 292 288 288 292 292 293 294 293 293 292 288 284 282 281 282 280 290 250 270 284 287 276 271 260 259
304 292 315 304 310 302 312 308 306 307 308 308 306 306 304 292 288 288 287 289 289 289 289 291 293 292 292 291 288 284 278 276 280 281 271 269 278 291 298 283 271 266 262
314 299 310 314 308 306 307 308 309 311 311 310 309 305 299 296 294 293 293 290 290 290 290 291 291 291 288 286 283 281 274 270 267 264 261 265 272 284 298 296 287 281 266
293 291 294 306 309 311 313 309 308 310 309 310 309 302 300 297 296 295 293 291 289 288 286 285 284 284 282 279 278 275 271 267 261 256 254 255 267 276 284 288 285 271 269
289 290 292 301 308 310 310 309 308 306 308 308 303 300 296 294 293 292 291 290 289 288 288 285 282 282 279 274 272 270 266 262 264 258 241 248 262 271 277 283 294 281 262
303 295 290 301 307 304 304 308 305 306 304 301 301 298 295 293 292 292 291 289 288 289 289 285 285 281 278 273 269 266 268 263 257 265 253 230 256 267 270 274 289 280 270
295 300 295 296 296 303 306 307 305 303 301 300 299 297 296 294 294 294 293 292 293 290 291 284 280 279 276 274 266 264 265 265 255 257 260 239 251 259 263 267 279 287 281
288 298 300 304 309 309 311 307 304 302 300 299 297 296 295 294 294 293 292 292 294 291 287 278 278 276 274 270 264 263 267 268 266 257 245 234 246 252 259 262 270 278 278
302 304 307 309 307 305 304 302 302 301 301 301 299 298 296 295 293 293 294 293 295 287 281 279 276 276 273 268 265 262 268 272 277 279 232 228 243 248 253 258 262 267 273
303 305 306 303 303 304 303 301 300 299 300 301 300 298 296 295 296 294 294 290 285 284 279 275 276 279 276 271 268 267 268 271 273 279 217 231 239 243 249 251 255 259 265
300 300 301 305 304 301 298 299 301 303 303 302 301 301 300 296 294 297 296 290 285 284 282 278 280 282 276 273 269 267 264 266 264 242 239 236 236 239 245 248 249 257 259
302 304 302 303 301 300 302 302 302 302 301 301 302 303 304 301 298 296 294 290 287 284 284 280 279 281 278 273 268 265 263 260 259 236 245 240 240 240 244 247 252 253 253
301 300 299 301 302 303 302 301 301 300 301 303 305 303 301 298 295 294 291 290 288 287 284 279 277 276 274 272 267 264 261 257 257 238 237 239 238 244 245 248 248 250 252
297 298 299 301 300 300 300 299 300 304 305 307 307 306 304 302 298 295 292 292 289 286 284 279 276 273 272 267 263 262 258 259 245 241 230 237 249 244 234 241 246 246 248
297 299 298 297 298 298 298 301 304 306 306 306 305 306 306 305 302 299 297 295 290 283 280 279 276 273 269 263 268 238 255 221 219 223 231 230 237 235 233 241 247 246 250
293 289 292 294 294 297 300 302 303 304 305 306 306 308 311 309 305 301 298 296 290 284 278 274 272 272 268 262 262 255 261 252 230 254 226 238 245 239 242 249 254 253 252
285 290 293 294 295 298 300 302 303 304 307 309 311 314 319 318 319 313 305 302 299 289 281 274 271 268 264 264 273 253 265 259 288 257 226 240 254 235 247 252 260 251 251
290 292 291 291 293 295 298 300 303 307 310 312 313 320 326 328 325 337 340 319 300 288 282 279 277 272 266 253 241 246 250 244 221 250 252 254 246 254 250 244 265 246 259
286 291 293 293 292 294 299 302 306 311 310 311 321 333 343 342 340 344 344 343 330 314 294 294 286 273 265 257 255 253 265 260 263 261 263 261 262 264 263 259 255 249 256
284 289 291 289 292 297 304 307 310 308 307 316 324 333 333 341 352 351 352 348 348 342 326 306 305 302 284 263 265 262 265 261 258 256 257 259 257 250 252 254 255 259 258
293 297 289 291 296 301 305 305 307 306 310 312 315 320 322 330 346 358 359 4 351 346 352 338 330 310 256 279 257 252 260 255 251 253 253 253 248 252 256 261 260 259 266
291 290 290 292 296 299 300 303 303 309 312 308 320 323 314 326 339 346 357 7 11 17 329 295 293 294 297 307 324 329 327 310 292 290 286 273 269 261 257 258 260 262 263
286 287 292 294 296 289 299 302 305 307 307 313 319 310 314 330 339 345 352 357 1 17 34 49 53 46 327 343 81 93 98 88 77 104 122 112 48 331 293 266 251 243 245
281 282 284 283 282 277 293 299 296 294 307 307 302 310 321 341 340 351 356 355 355 350 6 6 15 11 16 20 14 16 12 13 5 359 357 352 331 306 303 301 294 289 285
275 276 273 277 285 284 294 283 285 291 292 296 308 315 325 337 343 344 334 339 351 351 360 6 8 12 15 16 13 360 1 355 342 336 332 318 309 301 292 285 283 280 277
276 276 275 269 264 274 276 270 287 290 293 296 301 313 324 336 336 335 342 342 345 344 345 0 0 359 0 4 9 3 353 340 328 322 317 311 305 299 294 289 285 281 279
Height
5916 5916 5915 5913 5911 5908 5908 5908 5905 5903 5900 5898 5895 5891 5886 5881 5877 5873 5870 5867 5864 5860 5857 5855 5854 5850 5847 5844 5840 5840 5839 5838 5839 5840 5840 5840 5838 5837 5833 5827 5825 5826 5827
5912 5910 5909 5907 5906 5905 5903 5901 5899 5895 5892 5888 5883 5879 5874 5870 5866 5862 5859 5855 5852 5849 5846 5843 5842 5838 5836 5832 5830 5830 5829 5828 5829 5830 5832 5831 5830 5827 5823 5816 5813 5815 5816
5904 5903 5902 5902 5901 5897 5894 5891 5888 5884 5878 5874 5870 5865 5860 5856 5853 5849 5845 5842 5839 5836 5834 5831 5829 5826 5825 5821 5820 5818 5818 5818 5819 5820 5823 5821 5821 5818 5814 5810 5808 5808 5807
5892 5895 5895 5894 5890 5887 5883 5880 5874 5870 5867 5861 5855 5850 5846 5843 5839 5835 5832 5829 5826 5823 5821 5818 5816 5814 5811 5809 5807 5806 5805 5806 5806 5808 5810 5809 5809 5808 5807 5804 5802 5801 5800
5885 5883 5884 5884 5880 5875 5871 5866 5861 5856 5851 5846 5841 5837 5833 5829 5825 5821 5818 5814 5811 5809 5806 5803 5801 5799 5796 5795 5793 5793 5792 5792 5793 5792 5792 5797 5799 5798 5798 5797 5794 5793 5793
5879 5875 5873 5872 5868 5865 5860 5854 5848 5843 5837 5832 5828 5824 5820 5815 5811 5806 5803 5800 5796 5793 5790 5787 5786 5784 5782 5780 5781 5780 5781 5780 5779 5777 5777 5783 5787 5789 5789 5789 5788 5788 5787
5868 5866 5864 5861 5859 5853 5846 5840 5833 5828 5823 5818 5813 5809 5805 5800 5795 5790 5786 5783 5779 5776 5772 5770 5770 5769 5767 5767 5768 5768 5767 5767 5766 5767 5771 5774 5777 5778 5779 5780 5780 5779 5779
5860 5852 5849 5844 5838 5834 5830 5825 5820 5815 5810 5805 5800 5796 5791 5785 5780 5775 5772 5769 5765 5761 5758 5757 5755 5755 5754 5754 5755 5755 5755 5756 5757 5758 5760 5763 5766 5768 5770 5771 5773 5772 5772
5841 5837 5833 5829 5826 5823 5819 5813 5807 5801 5796 5791 5786 5781 5776 5772 5766 5761 5757 5754 5751 5748 5746 5744 5743 5742 5742 5742 5743 5744 5744 5745 5744 5743 5746 5751 5755 5758 5761 5762 5765 5765 5766
5828 5824 5821 5818 5813 5808 5803 5799 5793 5789 5784 5778 5772 5766 5762 5758 5752 5748 5745 5741 5739 5735 5734 5733 5732 5730 5730 5730 5731 5733 5734 5734 5733 5731 5734 5740 5745 5748 5752 5755 5757 5759 5760
5818 5815 5811 5804 5799 5794 5791 5786 5781 5775 5769 5764 5759 5754 5749 5744 5739 5735 5731 5728 5726 5724 5722 5721 5720 5719 5718 5718 5718 5721 5722 5724 5726 5727 5729 5732 5735 5738 5742 5746 5749 5752 5754
5804 5799 5794 5791 5786 5780 5775 5771 5767 5762 5757 5753 5747 5742 5737 5732 5727 5723 5719 5716 5714 5712 5711 5709 5708 5707 5707 5706 5707 5708 5710 5713 5714 5718 5721 5724 5727 5730 5733 5736 5739 5742 5745
5789 5786 5782 5777 5773 5768 5763 5759 5754 5750 5746 5740 5735 5731 5726 5721 5717 5712 5708 5705 5703 5701 5700 5698 5697 5696 5696 5695 5696 5697 5700 5701 5702 5706 5710 5714 5718 5721 5724 5727 5729 5731 5735
5777 5774 5770 5765 5760 5756 5752 5748 5744 5739 5734 5728 5725 5719 5714 5709 5705 5700 5696 5693 5691 5689 5688 5687 5686 5686 5685 5685 5686 5687 5688 5687 5690 5695 5698 5703 5707 5711 5715 5718 5721 5722 5724
5767 5762 5758 5754 5750 5747 5742 5738 5733 5729 5724 5720 5715 5709 5703 5698 5692 5688 5685 5681 5679 5677 5677 5676 5676 5674 5675 5675 5674 5674 5671 5672 5670 5681 5687 5691 5695 5701 5706 5710 5713 5714 5715
5754 5751 5748 5745 5741 5736 5732 5728 5723 5719 5715 5712 5706 5699 5694 5688 5683 5677 5672 5670 5667 5665 5665 5665 5665 5664 5664 5666 5665 5668 5672 5671 5670 5673 5676 5683 5688 5692 5698 5701 5704 5705 5707
5743 5740 5737 5734 5731 5727 5724 5720 5716 5712 5707 5702 5695 5690 5687 5681 5673 5668 5663 5658 5656 5654 5653 5653 5654 5654 5656 5658 5660 5661 5663 5665 5666 5672 5671 5674 5677 5681 5686 5691 5693 5695 5698
5733 5731 5728 5725 5722 5719 5716 5713 5709 5704 5700 5695 5689 5684 5677 5674 5667 5661 5656 5650 5646 5644 5644 5644 5643 5645 5647 5651 5653 5655 5657 5661 5662 5662 5664 5666 5670 5674 5674 5677 5682 5685 5687
5724 5722 5720 5717 5713 5711 5709 5706 5701 5697 5693 5689 5685 5680 5674 5670 5662 5656 5650 5646 5642 5638 5636 5636 5636 5636 5638 5642 5644 5647 5650 5651 5653 5654 5656 5659 5661 5664 5665 5669 5672 5673 5675
5716 5712 5711 5708 5706 5703 5700 5698 5694 5691 5688 5684 5680 5676 5673 5669 5661 5654 5649 5643 5639 5635 5632 5631 5631 5632 5633 5635 5636 5638 5642 5644 5645 5647 5648 5649 5650 5652 5655 5657 5659 5661 5663
5707 5706 5704 5701 5698 5695 5692 5691 5689 5686 5683 5680 5677 5674 5672 5669 5661 5656 5650 5643 5638 5635 5633 5631 5631 5631 5631 5632 5632 5632 5633 5634 5636 5638 5639 5642 5643 5644 5644 5646 5648 5649 5651
5699 5698 5696 5693 5691 5689 5687 5686 5683 5681 5679 5677 5674 5672 5670 5666 5661 5656 5651 5647 5642 5637 5634 5633 5632 5631 5630 5630 5630 5630 5630 5630 5631 5632 5633 5634 5635 5636 5636 5636 5637 5638 5639
5692 5691 5689 5686 5685 5684 5683 5681 5679 5676 5675 5673 5671 5670 5668 5664 5660 5656 5652 5648 5645 5641 5638 5635 5632 5631 5629 5628 5628 5628 5628 5629 5630 5630 5631 5631 5631 5632 5632 5632 5632 5631 5632
5683 5683 5682 5681 5680 5678 5678 5676 5674 5672 5671 5670 5669 5668 5665 5661 5658 5654 5651 5648 5645 5643 5640 5638 5636 5634 5632 5631 5631 5630 5629 5629 5629 5629 5628 5628 5628 5628 5629 5629 5630 5630 5629
5676 5676 5675 5675 5674 5672 5672 5671 5670 5668 5667 5667 5667 5664 5662 5658 5655 5652 5650 5647 5644 5642 5640 5639 5637 5635 5634 5633 5632 5631 5630 5629 5629 5628 5628 5627 5627 5627 5626 5626 5627 5626 5625
5669 5668 5668 5668 5668 5668 5667 5667 5666 5666 5666 5665 5663 5661 5658 5655 5653 5650 5647 5645 5642 5641 5639 5638 5637 5636 5634 5633 5632 5631 5631 5630 5630 5629 5628 5627 5626 5625 5623 5622 5621 5620 5618